NOAA 16 DEB, 41075

Orbit data source: Space-Track

NOAA 16 DEB, 41075 is space debris in SSO originally from a launch on Thu, 21 Sep 2000 UTC launched from the Air Force Western Test Range (AFWTR). Debris objects in space refer to the collection of defunct objects orbiting the Earth. Examples of debris include non-operational satellites, rocket bodies, and fragments generated from explosions, collisions, or faulty payload assembly.

Loading next visibility...
Identifier
41075, 2000-055AJ
Orbit
SSO
Country
Flag of USUS
Related business
Manufacturer
Unknown
Mission
Spacecraft
Bus & Motor
Unknown
Mass
Unknown
Launch date (UTC)
2000-09-21 (25 years ago)
Launch vehicle
Unknown
Launch site
Air Force Western Test Range (AFWTR)
Object type
Payload
Rocket body
Debris
Shape & HBR
Unknown
Radar Cross Section
Small (<0.1 m²)

Expand to show TLE details & history
Last TLE update: 1 day ago

TLE from 1 day ago
0 NOAA 16 DEB
1 41075U 00055AJ  25241.89050850  .00052854  00000-0  25402-2 0  9995
2 41075  99.0706   8.3589 0083792  41.3741 319.3793 15.15521732521287
Epoch: 2025-08-29T21:22Z
TLE epoch observation values (Epoch: 2025-08-29T21:22:19.934Z)
Latitude
0.00004°
Longitude
69.44317°
Altitude
478.755 km
Speed
7.65 km/s
True Right ascension
00h 33m 26s
True Declination
0° 00' 00"
Sunlit
Object was in full shadow at epoch
Visualization orbit readout
Latitude
Unknown
Longitude
Unknown
Altitude
Unknown
Speed
Unknown
Apparent Right ascension
Unknown
Apparent Declination
Unknown
Sunlit
N/A
Visualization observer readout
Local Sidereal Time
15:42:33
Azimuth
Unknown
Elevation
Unknown
Doppler factor
Unknown
Orbital elements
Apogee altitude
574.217 km
Perigee altitude
458.674 km
Semi-major axis
6,894.582 km
Eccentricity
0.00838
Inclination
99.0706°
RAAN
8.3589°
Arg. of periapsis
41.3741°
True anomaly
318.74918°
Mean anomaly
319.3793°
Eccentric anomaly
319.06474°
Mean motion
3.79124 °/min
Orbital period
94.96 mins
BSTAR
0.0025402
Loading maneuver chart data...
Computing Atmospheric mass density...
Loading historical data...
Loading historical data...
Loading historical data...
Loading historical data...
Loading historical data...
Loading historical data...
Loading historical data...

Documentation

Showing up to 5 results
|